Location: Wanzleben
(52.0609°N, 11.4408°E)
Time: 20:24:26
(UTC+00:00)

ISS - Visible Passes

Search period start: 25 November 2020 00:00
Search period end: 05 December 2020 00:00
Orbit: 418 x 421 km, 51.6° (Epoch: 26 November)

Date Brightness Start Highest point End Pass type
(mag) Time Alt. Az. Time Alt. Az. Time Alt. Az.
25 Nov -2.5 16:22:52 10° SW 16:25:52 30° SSE 16:27:59 16° E visible
25 Nov -1.9 17:59:03 10° WSW 18:00:57 31° WSW 18:00:57 31° WSW visible
26 Nov -3.7 17:11:37 10° WSW 17:14:59 66° SSE 17:15:21 59° SE visible
27 Nov -3.3 16:24:14 10° WSW 16:27:31 53° SSE 16:29:44 19° E visible
27 Nov -1.8 18:00:52 10° W 18:02:42 30° W 18:02:42 30° W visible
28 Nov -3.9 17:13:22 10° W 17:16:45 84° S 17:17:04 71° ESE visible
29 Nov -3.7 16:25:53 10° WSW 16:29:15 77° S 16:31:26 20° E visible
29 Nov -1.6 18:02:40 10° W 18:04:23 28° W 18:04:23 28° W visible
30 Nov -3.9 17:15:09 10° W 17:18:32 83° S 17:18:46 75° ESE visible
01 Dec -3.8 16:27:37 10° W 16:31:00 86° S 16:33:10 21° E visible
01 Dec -1.5 18:04:26 10° W 18:06:07 26° W 18:06:07 26° W visible
02 Dec -3.6 17:16:53 10° W 17:20:13 64° SSW 17:20:34 58° SSE visible
03 Dec -3.6 16:29:19 10° W 16:32:42 75° S 16:35:04 18° ESE visible
03 Dec -1.3 18:06:16 10° W 18:08:02 23° WSW 18:08:02 23° WSW visible
04 Dec -3.7 15:41:46 10° W 15:45:08 83° S 15:48:31 10° E visible
04 Dec -2.6 17:18:36 10° W 17:21:47 39° SSW 17:22:38 32° SSE visible
